Location: Kunchanapalle
(16.4623°N, 80.6176°E)
Time: 18:15:16
(UTC+00:00)

USA 281 - Pass Details

Date: 13 August 2020
Orbit: 1079 x 1080 km, 106.0° (Epoch: 07 September)

Event Time Altitude Azimuth Distance (km) Brightness Sun altitude
Rises 21:55:56 0° 28° (NNE) 3,869 6.9 -33.1°
Reaches altitude 10° 21:58:31 10° 32° (NNE) 2,913 6.2 -32.6°
Maximum altitude 22:04:53 54° 109° (ESE) 1,284 3.7 -31.3°
Enters shadow 22:06:40 42° 156° (SSE) 1,482 3.8 -30.9°
